Location: Peebles
(55.6412°N, 3.1714°W)
Time: 17:37:05
(UTC+01:00)

Cosmos 1934 Rocket - Pass Details

Date: 29 January 2022
Orbit: 938 x 999 km, 83.0° (Epoch: 25 May)

Event Time Altitude Azimuth Distance (km) Brightness Sun altitude
Rises 20:22:52 0° 339° (NNW) 3,643 7.4 -31.0°
Reaches altitude 10° 20:27:16 10° 309° (NW) 2,679 7.0 -31.6°
Maximum altitude 20:29:15 12° 290° (WNW) 2,548 7.0 -31.8°
Drops below altitude 10° 20:31:14 10° 271° (W) 2,665 7.1 -32.1°
Sets 20:35:36 0° 241° (WSW) 3,597 7.5 -32.7°
